EN

Hourly Weather Bolshie Lipki

Today, 24 October, Saturday

Time Temperature Precipitation Wind Pressure Humidity
00:00 +7°C° 0 mm 3 mps 746 mmHg 89%
01:00 +7°C° 0 mm 3 mps 746 mmHg 91%
02:00 +5°C° 0 mm 3 mps 747 mmHg 92%
03:00 +5°C° 0 mm 3 mps 747 mmHg 93%
04:00 +5°C° 0 mm 3 mps 747 mmHg 94%
05:00 +4°C° 0 mm 3 mps 747 mmHg 94%
06:00 +5°C° 0 mm 2 mps 747 mmHg 94%
07:00 +5°C° 0 mm 2 mps 747 mmHg 94%
08:00 +5°C° 0 mm 2 mps 748 mmHg 93%
09:00 +6°C° 0 mm 2 mps 748 mmHg 88%
10:00 +7°C° 0 mm 2 mps 748 mmHg 84%
11:00 +7°C° 0 mm 2 mps 748 mmHg 79%
12:00 +7°C° 0 mm 2 mps 748 mmHg 81%
13:00 +7°C° 0 mm 2 mps 748 mmHg 83%
14:00 +8°C° 0 mm 1 mps 748 mmHg 85%
15:00 +8°C° 0 mm 1 mps 748 mmHg 86%
16:00 +7°C° 0 mm 1 mps 748 mmHg 87%
17:00 +7°C° 0 mm 1 mps 748 mmHg 88%
18:00 +7°C° 0 mm 1 mps 748 mmHg 90%
19:00 +6°C° 0 mm 1 mps 748 mmHg 91%
20:00 +6°C° 0 mm 1 mps 748 mmHg 92%
21:00 +6°C° 0.2 mm 1 mps 748 mmHg 93%
22:00 +5°C° 0.2 mm 2 mps 748 mmHg 93%
23:00 +6°C° 0.2 mm 2 mps 748 mmHg 94%

Tomorrow, 25 October, Sunday

Time Temperature Precipitation Wind Pressure Humidity
00:00 +6°C° 0.5 mm 2 mps 748 mmHg 95%
01:00 +7°C° 0.5 mm 2 mps 748 mmHg 95%
02:00 +7°C° 0.5 mm 2 mps 748 mmHg 96%
03:00 +7°C° 0 mm 2 mps 749 mmHg 96%
04:00 +7°C° 0 mm 2 mps 749 mmHg 95%
05:00 +7°C° 0 mm 3 mps 749 mmHg 95%
06:00 +8°C° 0 mm 2 mps 749 mmHg 95%
07:00 +8°C° 0 mm 2 mps 750 mmHg 95%
08:00 +8°C° 0 mm 2 mps 750 mmHg 95%
09:00 +8°C° 0 mm 2 mps 751 mmHg 93%
10:00 +8°C° 0 mm 2 mps 751 mmHg 92%
11:00 +9°C° 0 mm 3 mps 752 mmHg 91%
12:00 +9°C° 0 mm 3 mps 752 mmHg 87%
13:00 +10°C° 0 mm 3 mps 753 mmHg 84%
14:00 +10°C° 0 mm 3 mps 753 mmHg 80%
15:00 +10°C° 0 mm 2 mps 753 mmHg 83%
16:00 +9°C° 0 mm 2 mps 754 mmHg 86%
17:00 +9°C° 0 mm 1 mps 754 mmHg 88%
18:00 +9°C° 0 mm 1 mps 754 mmHg 88%
19:00 +9°C° 0 mm 1 mps 755 mmHg 89%
20:00 +8°C° 0 mm 1 mps 755 mmHg 89%
21:00 +8°C° 0 mm 1 mps 755 mmHg 89%
22:00 +8°C° 0 mm 1 mps 755 mmHg 90%
23:00 +9°C° 0 mm 1 mps 755 mmHg 90%

Day after tomorrow, 26 October, Monday

Time Temperature Precipitation Wind Pressure Humidity
00:00 +9°C° 0 mm 1 mps 756 mmHg 91%
01:00 +9°C° 0 mm 1 mps 756 mmHg 91%
02:00 +9°C° 0 mm 1 mps 756 mmHg 92%
03:00 +8°C° 0 mm 2 mps 756 mmHg 93%
04:00 +7°C° 0 mm 2 mps 756 mmHg 94%
05:00 +7°C° 0 mm 2 mps 756 mmHg 95%
06:00 +7°C° 0 mm 2 mps 756 mmHg 96%
07:00 +6°C° 0 mm 2 mps 756 mmHg 96%
08:00 +6°C° 0 mm 2 mps 756 mmHg 96%
09:00 +8°C° 0 mm 2 mps 756 mmHg 92%
10:00 +9°C° 0 mm 2 mps 756 mmHg 89%
11:00 +10°C° 0 mm 3 mps 756 mmHg 85%
12:00 +10°C° 0 mm 3 mps 756 mmHg 83%
13:00 +11°C° 0 mm 3 mps 756 mmHg 82%
14:00 +11°C° 0 mm 3 mps 756 mmHg 81%
15:00 +11°C° 0 mm 3 mps 756 mmHg 84%
16:00 +10°C° 0 mm 3 mps 756 mmHg 88%
17:00 +9°C° 0 mm 3 mps 756 mmHg 92%
18:00 +9°C° 0 mm 3 mps 756 mmHg 92%
19:00 +9°C° 0 mm 3 mps 756 mmHg 92%
20:00 +8°C° 0 mm 4 mps 756 mmHg 92%
21:00 +10°C° 0 mm 4 mps 756 mmHg 91%
22:00 +10°C° 0 mm 4 mps 755 mmHg 90%
23:00 +10°C° 0 mm 4 mps 755 mmHg 89%

, 27 October, Tuesday

Time Temperature Precipitation Wind Pressure Humidity
00:00 +10°C° 0.1 mm 4 mps 755 mmHg 89%
01:00 +10°C° 0.1 mm 4 mps 755 mmHg 88%
02:00 +10°C° 0.1 mm 4 mps 755 mmHg 88%
03:00 +8°C° 0 mm 4 mps 755 mmHg 88%
04:00 +8°C° 0 mm 4 mps 755 mmHg 88%
05:00 +8°C° 0 mm 4 mps 755 mmHg 88%
06:00 +8°C° 0 mm 4 mps 755 mmHg 88%
07:00 +8°C° 0 mm 4 mps 755 mmHg 89%
08:00 +7°C° 0 mm 4 mps 755 mmHg 89%
09:00 +8°C° 0 mm 4 mps 755 mmHg 86%
10:00 +10°C° 0 mm 4 mps 755 mmHg 83%
11:00 +10°C° 0 mm 5 mps 755 mmHg 80%
12:00 +10°C° 0 mm 5 mps 755 mmHg 79%
13:00 +12°C° 0 mm 5 mps 754 mmHg 78%
14:00 +12°C° 0 mm 5 mps 754 mmHg 77%
15:00 +12°C° 0 mm 5 mps 754 mmHg 80%
16:00 +11°C° 0 mm 4 mps 754 mmHg 82%
17:00 +11°C° 0 mm 4 mps 754 mmHg 84%
18:00 +10°C° 0 mm 4 mps 754 mmHg 84%
19:00 +10°C° 0 mm 4 mps 754 mmHg 84%
20:00 +10°C° 0 mm 4 mps 754 mmHg 84%
21:00 +10°C° 0 mm 4 mps 754 mmHg 85%
22:00 +10°C° 0 mm 4 mps 754 mmHg 86%
23:00 +8°C° 0 mm 4 mps 754 mmHg 87%

27 October, Tuesday

Time Temperature Precipitation Wind Pressure Humidity
00:00 +10°C° 0.1 mm 4 mps 755 mmHg 89%
01:00 +10°C° 0.1 mm 4 mps 755 mmHg 88%
02:00 +10°C° 0.1 mm 4 mps 755 mmHg 88%
03:00 +8°C° 0 mm 4 mps 755 mmHg 88%
04:00 +8°C° 0 mm 4 mps 755 mmHg 88%
05:00 +8°C° 0 mm 4 mps 755 mmHg 88%
06:00 +8°C° 0 mm 4 mps 755 mmHg 88%
07:00 +8°C° 0 mm 4 mps 755 mmHg 89%
08:00 +7°C° 0 mm 4 mps 755 mmHg 89%
09:00 +8°C° 0 mm 4 mps 755 mmHg 86%
10:00 +10°C° 0 mm 4 mps 755 mmHg 83%
11:00 +10°C° 0 mm 5 mps 755 mmHg 80%
12:00 +10°C° 0 mm 5 mps 755 mmHg 79%
13:00 +12°C° 0 mm 5 mps 754 mmHg 78%
14:00 +12°C° 0 mm 5 mps 754 mmHg 77%
15:00 +12°C° 0 mm 5 mps 754 mmHg 80%
16:00 +11°C° 0 mm 4 mps 754 mmHg 82%
17:00 +11°C° 0 mm 4 mps 754 mmHg 84%
18:00 +10°C° 0 mm 4 mps 754 mmHg 84%
19:00 +10°C° 0 mm 4 mps 754 mmHg 84%
20:00 +10°C° 0 mm 4 mps 754 mmHg 84%
21:00 +10°C° 0 mm 4 mps 754 mmHg 85%
22:00 +10°C° 0 mm 4 mps 754 mmHg 86%
23:00 +8°C° 0 mm 4 mps 754 mmHg 87%

28 October, Wednesday

Time Temperature Precipitation Wind Pressure Humidity
00:00 +8°C° 0 mm 4 mps 754 mmHg 88%
01:00 +8°C° 0 mm 4 mps 754 mmHg 88%
02:00 +8°C° 0 mm 4 mps 754 mmHg 89%
03:00 +8°C° 0 mm 4 mps 754 mmHg 89%
04:00 +8°C° 0 mm 4 mps 753 mmHg 89%
05:00 +8°C° 0 mm 4 mps 753 mmHg 89%
06:00 +8°C° 0 mm 5 mps 753 mmHg 88%
07:00 +8°C° 0 mm 5 mps 753 mmHg 87%
08:00 +8°C° 0 mm 5 mps 753 mmHg 86%
09:00 +9°C° 0 mm 5 mps 754 mmHg 85%
10:00 +9°C° 0 mm 5 mps 754 mmHg 83%
11:00 +11°C° 0 mm 4 mps 754 mmHg 82%
12:00 +11°C° 0 mm 4 mps 754 mmHg 82%
13:00 +12°C° 0 mm 4 mps 755 mmHg 83%
14:00 +12°C° 0 mm 3 mps 755 mmHg 83%
15:00 +11°C° 0 mm 3 mps 755 mmHg 85%
16:00 +11°C° 0 mm 3 mps 755 mmHg 87%
17:00 +12°C° 0 mm 2 mps 756 mmHg 89%
18:00 +12°C° 0 mm 2 mps 756 mmHg 89%
19:00 +12°C° 0 mm 2 mps 756 mmHg 89%
20:00 +12°C° 0 mm 2 mps 756 mmHg 89%
21:00 +11°C° 0 mm 3 mps 756 mmHg 89%
22:00 +11°C° 0 mm 3 mps 756 mmHg 89%
23:00 +11°C° 0 mm 3 mps 756 mmHg 89%

29 October, Thursday

Time Temperature Precipitation Wind Pressure Humidity
00:00 +11°C° 0 mm 3 mps 755 mmHg 89%
01:00 +11°C° 0 mm 3 mps 755 mmHg 89%
02:00 +11°C° 0 mm 3 mps 755 mmHg 89%
03:00 +11°C° 0 mm 3 mps 755 mmHg 89%
04:00 +10°C° 0 mm 3 mps 755 mmHg 88%
05:00 +10°C° 0 mm 3 mps 755 mmHg 88%
06:00 +10°C° 0 mm 3 mps 755 mmHg 88%
07:00 +10°C° 0 mm 3 mps 755 mmHg 88%
08:00 +10°C° 0 mm 3 mps 755 mmHg 88%
09:00 +10°C° 0 mm 3 mps 755 mmHg 86%
10:00 +10°C° 0 mm 3 mps 755 mmHg 84%
11:00 +11°C° 0 mm 4 mps 755 mmHg 82%
12:00 +11°C° 0 mm 4 mps 755 mmHg 82%
13:00 +11°C° 0 mm 3 mps 754 mmHg 82%
14:00 +11°C° 0 mm 3 mps 754 mmHg 81%
15:00 +11°C° 0 mm 3 mps 754 mmHg 82%
16:00 +11°C° 0 mm 3 mps 754 mmHg 83%
17:00 +10°C° 0 mm 3 mps 754 mmHg 84%
18:00 +10°C° 0 mm 3 mps 754 mmHg 84%
19:00 +10°C° 0 mm 3 mps 754 mmHg 84%
20:00 +10°C° 0 mm 3 mps 754 mmHg 85%
21:00 +9°C° 0 mm 3 mps 754 mmHg 87%
22:00 +9°C° 0 mm 3 mps 754 mmHg 89%
23:00 +9°C° 0 mm 3 mps 754 mmHg 91%
Show more